This demonstration page uses our WeatherBlox Daily Observations layout. Learn more.

Left ArrowRight Arrow

47.50024, -111.30081

Hourly Observations for August 18, 2022

Temp ( °F °C ) Dew Point ( °F °C ) Humidity (%) Winds ( mph kmh ) Pressure ( in mb ) Visibility ( mi km ) Precip ( " mm )
12:53 am 00:53 Clear 66 18.9 43 6.1 43 43 ENE 9 15 30.12 1020 10 16 0.00 0.00
1:53 am 01:53 Clear 66 18.9 45 7.2 47 47 ENE 10 17 30.12 1020 10 16 0.00 0.00
2:53 am 02:53 Clear 66 18.9 45 7.2 47 47 E 10 17 30.10 1019 10 16 0.00 0.00
3:53 am 03:53 Clear 62 16.7 44 6.7 52 52 ENE 7 11 30.11 1020 10 16 0.00 0.00
4:53 am 04:53 Clear 61 16.1 45 7.2 56 56 NE 5 7 30.12 1020 10 16 0.00 0.00
5:53 am 05:53 Clear 55 12.8 43 6.1 64 64 WSW 6 9 30.13 1020 10 16 0.00 0.00
6:53 am 06:53 Sunny 53 11.7 43 6.1 68 68 WSW 7 11 30.14 1021 10 16 0.00 0.00
7:53 am 07:53 Sunny 63 17.2 44 6.7 50 50 Calm 30.14 1021 10 16 0.00 0.00
8:53 am 08:53 Sunny 67 19.4 44 6.7 44 44 Calm 30.15 1021 10 16 0.00 0.00
9:53 am 09:53 Sunny 71 21.7 45 7.2 39 39 SSW 5 7 30.14 1021 10 16 0.00 0.00
10:53 am 10:53 Sunny 77 25 45 7.2 32 32 S 6 9 30.12 1020 10 16 0.00 0.00
11:53 am 11:53 Sunny 81 27.2 46 7.8 29 29 VRB 3 6 30.10 1019 10 16 0.00 0.00
12:53 pm 12:53 Sunny 86 30 45 7.2 24 24 ENE 10 17 30.08 1019 N/A 0.00 0.00
1:53 pm 13:53 Sunny 87 30.6 41 5 20 20 undefined N/A 30.05 1018 10 16 0.00 0.00
2:53 pm 14:53 Sunny 89 31.7 42 5.6 19 19 ENE 9 15 30.03 1017 10 16 0.00 0.00
3:53 pm 15:53 Sunny 88 31.1 41 5 19 19 NE 9 15 30.02 1017 10 16 0.00 0.00
4:53 pm 16:53 Sunny 89 31.7 41 5 19 19 NE 15 24 30.01 1016 10 16 0.00 0.00
5:53 pm 17:53 Sunny 88 31.1 40 4.4 19 19 NNE 13 20 30.01 1016 10 16 0.00 0.00
6:53 pm 18:53 Sunny 85 29.4 40 4.4 20 20 NE 15 24 30.01 1016 10 16 0.00 0.00
7:53 pm 19:53 Sunny 82 27.8 39 3.9 22 22 ENE 15 24 30.00 1016 10 16 0.00 0.00
8:53 pm 20:53 Clear 77 25 39 3.9 25 25 ENE 12 19 30.01 1016 10 16 0.00 0.00
9:53 pm 21:53 Clear 75 23.9 38 3.3 26 26 ENE 13 20 30.03 1017 10 16 0.00 0.00
10:53 pm 22:53 Clear 73 22.8 38 3.3 28 28 ENE 12 19 30.03 1017 10 16 0.00 0.00
11:53 pm 23:53 Clear 67 19.4 38 3.3 34 34 ESE 8 13 30.03 1017 10 16 0.00 0.00

Powered by AerisWeather